Regional Weather Roundup
Issued by NWS

Home | Current Version | Previous Version | Graphics & Text | Print | Product List | Glossary On
Versions: 1 2 3 4 5 6 7 8 9 10 11 12 13 14 15 16 17 18 19 20 21 22 23 24 25 26 27 28 29 30 31 32 33 34 35 36 37 38 39 40 41 42 43 44 45 46 47 48 49 50
000
ASUS45 KSLC 151410
RWRUT

UTAH REGIONAL WEATHER ROUNDUP
NATIONAL WEATHER SERVICE SALT LAKE CITY UT
800 AM MDT MON SEP 15 2014

UTZ001>011-023>025-151500-

NORTHERN UTAH

CITY           SKY/WX    TMP DP  RH WIND       PRES   REMARKS
HILL AFB       PTCLDY    64  39  39 E12       30.14R
LOGAN          PTCLDY    55  44  66 SE8       30.15R
OGDEN          PTCLDY    64  40  41 NE3       30.12R
PROVO AIRPORT  PTCLDY    57  39  51 CALM      30.15R
SALT LAKE CITY PTCLDY    65  43  44 E5        30.10R
VERNAL         MOSUNNY   54  41  61 W6        30.23R
WENDOVER       PTCLDY    59  34  38 NE5       30.10R
HEBER CITY     PTCLDY    43  41  93 CALM      30.25R
WEST JORDAN    CLEAR     64  37  36 SW8       30.12R

$$

UTZ012>022-026-027-151500-

SOUTHERN UTAH

CITY           SKY/WX    TMP DP  RH WIND       PRES   REMARKS
BRYCE CANYON   CLEAR     44  38  79 W3        30.37R
CEDAR CITY     CLEAR     52  41  66 SW6       30.20R
MILFORD        CLEAR     54  39  57 S6        30.16R
MOAB/CYNLANDS  CLOUDY    68  42  38 E9        30.13R
PRICE          PTCLDY    61  33  35 NE5       30.23R
ST GEORGE      MOSUNNY   64  43  45 S3        30.06R
KANAB            N/A     57  39  51 NW3       30.21R

$$

REGIONAL REPORTS     COLORADO/ARIZONA

CITY           SKY/WX    TMP DP  RH WIND       PRES   REMARKS
CRAIG, CO      SUNNY     43  39  86 CALM      30.31S
GRAND JUNCTION PTSUNNY   60  43  53 S7        30.18F
RIFLE          SUNNY     50  41  71 CALM      30.28R
MONTROSE       SUNNY     56  42  59 S5        30.29R
CORTEZ         SUNNY     50  43  77 CALM      30.29R
PAGE, AZ       CLEAR     69  48  47 SW3       30.13R
GRAND CANYON   PTCLDY    50  45  83 CALM      30.30R
KINGMAN        CLEAR     73  49  42 S9        30.05R
FLAGSTAFF      CLEAR     53  48  83 CALM      30.31S

$$

REGIONAL REPORTS    NEVADA/IDAHO/WYOMING

CITY           SKY/WX    TMP DP  RH WIND       PRES   REMARKS
LAS VEGAS, NV  PTCLDY    80  49  33 SW7       29.90R
ELY            CLEAR     45  34  65 S8        30.25R
ELKO           MOCLDY    49  27  42 NE6       30.18R
POCATELLO, ID  PTCLDY    44  37  76 CALM      30.15R
BURLEY         PTCLDY    48  41  76 CALM      30.10R
EVANSTON, WY   PTCLDY    54  35  48 E10       30.30S
ROCK SPRINGS   SUNNY     47  35  63 VRB3      30.33R

$$


USA.gov is the U.S. government's official web portal to all federal, state and local government web resources and services.